Location: Newark
(48.1500°N, 2.9667°W)
Time: 03:32:41
(UTC+00:00)

Transit 2A - Pass Details

Date: 26 January 2020
Orbit: 600 x 959 km, 66.7° (Epoch: 16 February)

Event Time Altitude Azimuth Distance (km) Brightness Sun altitude
Rises 05:57:20 0° 311° (NW) 3,015 - -18.3°
Reaches altitude 10° 06:00:14 10° 292° (WNW) 2,156 - -17.9°
Maximum altitude 06:03:25 18° 251° (WSW) 1,762 - -17.3°
Exits shadow 06:04:51 16° 231° (SW) 1,885 7.7 -17.1°
Drops below altitude 10° 06:06:47 10° 210° (SSW) 2,295 8.3 -16.8°
Sets 06:10:01 0° 192° (SSW) 3,295 9.3 -16.2°
